Texarkana, AR

6:04 PM CDT on May 23, 2018 (GMT -0500)
Texarkana Regional-Webb

Weather History for KTXK - September, 2012

Change the Weather History Date:

Monday, September 10, 2012

  Actual Average Record
Temperature  
Mean Temperature 74 °F 77 °F  
Max Temperature 91 °F 88 °F 108 °F (1909)
Min Temperature 57 °F 66 °F 50 °F (1900)
Degree Days  
Heating Degree Days 0 0  
Month to date heating degree days 0 0  
Since 1 July heating degree days 0 0  
Cooling Degree Days 9 12  
Month to date cooling degree days 193 133  
Year to date cooling degree days 2492 1921  
Growing Degree Days 24 (Base 50)    
Moisture  
Dew Point 52 °F    
Average Humidity 58    
Maximum Humidity 93    
Minimum Humidity 23    
Precipitation  
Precipitation 0.00 in 0.12 in 1.52 in (1951)
Month to date precipitation 0.74 1.15  
Year to date precipitation 23.37 32.57  
Snow  
Snow 0.00 in - - ()
Month to date snowfall 0.0  
Since 1 July snowfall 0.0  
Since 1 September snowfall 0.0  
Snow Depth 0.00 in    
Sea Level Pressure  
Sea Level Pressure 30.07 in    
Wind  
Wind Speed 3 mph (SE)    
Max Wind Speed 9 mph    
Max Gust Speed 14 mph    
Visibility 10 miles    
Events      
T = Trace of Precipitation, MM = Missing Value Source: NWS Daily Summary

Daily Weather History Graph

Daily Weather History Graph

Search for Another Location

Airport or City:

Astronomy

Sep. 10, 2012 Rise Set
Actual Time 6:56 AM CDT 7:28 PM CDT
Civil Twilight 6:31 AM CDT 7:53 PM CDT
Nautical Twilight 6:01 AM CDT 8:22 PM CDT
Astronomical Twilight 5:32 AM CDT 8:52 PM CDT
Moon 1:30 AM CDT (9/10) 3:47 PM CDT (9/10)
Length of Visible Light 13h 22m
Length of Day
12h 32m
Waning Crescent, 30% of the Moon is Illuminated
Sep 10
Waning Crescent
Sep 15
New
Sep 22
First Quarter
Sep 29
Full
Oct 8
Last Quarter

Hourly Weather History & Observations

Time (CDT) Temp. Heat Index Dew Point Humidity Pressure Visibility Wind Dir Wind Speed Gust Speed Precip Events Conditions
12:53 AM 68.0 °F - 53.1 °F 59% 30.05 in 10.0 mi SSW 5.8 mph - N/A   Clear
1:53 AM 66.9 °F - 52.0 °F 59% 30.05 in 10.0 mi SSW 5.8 mph - N/A   Clear
2:53 AM 66.0 °F - 53.1 °F 63% 30.06 in 10.0 mi SSW 3.5 mph - N/A   Clear
3:53 AM 64.9 °F - 54.0 °F 68% 30.06 in 10.0 mi Calm Calm - N/A   Clear
4:53 AM 57.9 °F - 54.0 °F 87% 30.08 in 10.0 mi Calm Calm - N/A   Clear
5:53 AM 59.0 °F - 54.0 °F 83% 30.09 in 10.0 mi NNE 3.5 mph - N/A   Clear
6:53 AM 57.9 °F - 55.0 °F 90% 30.11 in 10.0 mi Calm Calm - N/A   Clear
7:53 AM 63.0 °F - 55.9 °F 78% 30.13 in 10.0 mi Calm Calm - N/A   Clear
8:53 AM 70.0 °F - 57.0 °F 63% 30.13 in 10.0 mi Calm Calm - N/A   Clear
9:53 AM 75.0 °F - 55.0 °F 50% 30.14 in 10.0 mi Calm Calm - N/A   Clear
10:53 AM 79.0 °F - 55.9 °F 45% 30.14 in 10.0 mi Calm Calm - N/A   Clear
11:53 AM 84.0 °F - 52.0 °F 33% 30.13 in 10.0 mi Variable 3.5 mph - N/A   Clear
12:53 PM 84.9 °F - 48.0 °F 28% 30.10 in 10.0 mi Calm Calm - N/A   Clear
1:53 PM 88.0 °F - 48.0 °F 25% 30.08 in 10.0 mi NW 3.5 mph - N/A   Clear
2:53 PM 88.0 °F - 46.0 °F 23% 30.05 in 10.0 mi East 3.5 mph - N/A   Clear
3:53 PM 90.0 °F - 46.9 °F 23% 30.03 in 10.0 mi Variable 3.5 mph - N/A   Clear
4:53 PM 90.0 °F - 46.9 °F 23% 30.02 in 10.0 mi NE 5.8 mph - N/A   Clear
5:53 PM 89.1 °F - 46.9 °F 23% 30.02 in 10.0 mi Calm Calm - N/A   Clear
6:53 PM 86.0 °F - 50.0 °F 29% 30.01 in 10.0 mi Calm Calm - N/A   Clear
7:53 PM 80.1 °F 79.9 °F 53.1 °F 39% 30.01 in 10.0 mi ESE 5.8 mph - N/A   Clear
8:53 PM 77.0 °F - 53.1 °F 43% 30.03 in 10.0 mi SE 6.9 mph - N/A   Clear
9:53 PM 75.9 °F - 55.9 °F 50% 30.05 in 10.0 mi SE 6.9 mph - N/A   Clear
10:53 PM 73.0 °F - 57.0 °F 57% 30.06 in 10.0 mi SE 3.5 mph - N/A   Clear
11:53 PM 71.1 °F - 57.0 °F 61% 30.07 in 10.0 mi SE 5.8 mph - N/A   Clear